�����͌���@�Y���u�C�̈ړ��ʁi�������j,,,,,,,,,,,,
�@,Time,Time int.,,Lat.,,Long.,,Distance,,Direction,Speed,
Date(yyyy/mm/dd),(hh:mm),(hour),(min),(deg),(min),(deg),(min),(miles),(meter),(deg),(m/s),(knots)
2005/6/28,9:35,0,,36,47.772,137,4.176,,,,,
2005/6/28,9:45,0,10,36,47.808,137,4.272,0.085074624,157.558203,65.05871016,0.262597005,0.510447742
2005/6/28,9:50,0,5,36,47.844,137,4.302,0.043280042,80.15463765,33.88643933,0.267182125,0.519360503
2005/6/28,9:55,0,5,36,47.856,137,4.338,0.031299028,57.96579908,67.54360966,0.19321933,0.375588331
2005/6/28,10:00,0,5,36,47.91,137,4.428,0.090184874,167.0223872,53.33049373,0.556741291,1.082218491
2005/6/28,10:10,0,10,36,47.922,137,4.446,0.018778115,34.77706972,50.39766541,0.057961783,0.112668692
2005/6/28,10:15,0,5,36,47.952,137,4.512,0.060888781,112.7660227,60.57943679,0.375886742,0.730665374
2005/6/28,10:20,0,5,36,47.964,137,4.542,0.026910133,49.83756585,63.60937478,0.16612522,0.322921593
2005/6/28,10:25,0,5,36,47.982,137,4.584,0.038222862,70.78874083,62.00028084,0.235962469,0.458674347
2005/6/28,10:30,0,5,36,47.994,137,4.632,0.040370386,74.76595498,72.78490792,0.24921985,0.484444633
2005/6/28,10:35,0,5,36,48.006,137,4.68,0.04037029,74.76577688,72.78438617,0.249219256,0.484443479
2005/6/28,10:40,0,5,36,48.03,137,4.74,0.053819703,99.67409087,63.60724815,0.33224697,0.645836442
2005/6/28,10:45,0,5,36,48.048,137,4.782,0.038222436,70.78795125,61.99796094,0.235959837,0.458669231
2005/6/28,10:50,0,5,36,48.078,137,4.836,0.05271128,97.62129072,55.41377086,0.325404302,0.632535361
2005/6/28,10:55,0,5,36,48.084,137,4.89,0.043780512,81.0815088,82.18468228,0.270271696,0.525366148
2005/6/28,11:00,0,5,36,48.102,137,4.938,0.042535016,78.77484933,65.05036853,0.262582831,0.51042019
2005/6/28,11:05,0,5,36,48.138,137,4.974,0.046135737,85.44338427,38.85556738,0.284811281,0.55362884
2005/6/28,11:10,0,5,36,48.144,137,5.04,0.053342889,98.79103093,83.60008437,0.329303436,0.640114671
2005/6/28,11:15,0,5,36,48.156,137,5.1,0.049654424,91.95999316,76.08282407,0.306533311,0.595853087
2005/6/28,11:20,0,5,36,48.168,137,5.148,0.040368994,74.76337695,72.7791393,0.249211256,0.484427928
2005/6/28,11:25,0,5,36,48.168,137,5.202,0.04336769,80.31696243,90.04817465,0.267723208,0.520412284
2005/6/28,11:30,0,5,36,48.18,137,5.256,0.044993039,83.32710741,74.60000136,0.277757025,0.539916463
2005/6/28,11:35,0,5,36,48.21,137,5.304,0.048822632,90.41951394,52.19236921,0.30139838,0.585871581
2005/6/28,11:40,0,5,36,48.222,137,5.346,0.035795807,66.29383445,70.48664029,0.220979448,0.429549683
2005/6/28,11:45,0,5,36,48.24,137,5.406,0.051429635,95.24768479,69.58741409,0.317492283,0.617155625


�A,Time,Time int.,,Lat.,,Long.,,Distance,,Direction,Speed,
Date(yyyy/mm/dd),(hh:mm),(hour),(min),(deg),(min),(deg),(min),(miles),(meter),(deg),(m/s),(knots)
2005/6/28,12:05,0,,36,47.67,137,4.218,,,,,
2005/6/28,12:10,0,5,36,47.682,137,4.32,0.0827974,153.3407857,81.73489778,0.511135952,0.993568806
2005/6/28,12:15,0,5,36,47.67,137,4.38,0.049659233,91.96889967,104.0214036,0.306562999,0.595910797
2005/6/28,12:20,0,5,36,47.664,137,4.428,0.039016132,72.25787671,98.89033132,0.240859589,0.468193586
2005/6/28,12:25,0,5,36,47.652,137,4.494,0.054348587,100.6535827,102.7940809,0.335511942,0.652183041
2005/6/28,12:30,0,5,36,47.628,137,4.53,0.037557549,69.55658102,129.7109502,0.23185527,0.45069059
2005/6/28,12:35,0,5,36,47.61,137,4.572,0.038225137,70.79295395,118.106546,0.235976513,0.458701645
2005/6/28,12:40,0,5,36,47.604,137,4.626,0.043784927,81.08968402,97.91971161,0.270298947,0.525419119
2005/6/28,12:45,0,5,36,47.598,137,4.674,0.039016674,72.25887983,98.88774833,0.240862933,0.468200085
2005/6/28,12:50,0,5,36,47.586,137,4.728,0.044998311,83.33687229,105.4986508,0.277789574,0.539979734
2005/6/28,12:55,0,5,36,47.604,137,4.806,0.065177997,120.70965,74.04232731,0.4023655,0.782135961
2005/6/28,13:05,0,5,36,47.586,137,4.848,0.038225288,70.79323389,118.1036652,0.235977446,0.458703459
2005/6/28,13:10,0,5,36,47.574,137,4.896,0.040373633,74.77196841,107.3186581,0.249239895,0.484483597
2005/6/28,13:15,0,5,36,47.622,137,4.932,0.055982513,103.6796143,31.14901523,0.345598714,0.671790157
2005/6/28,13:20,0,5,36,47.61,137,4.986,0.044998091,83.3364641,105.4961534,0.277788214,0.539977089
2005/6/28,13:25,0,5,36,47.634,137,5.052,0.05817797,107.7455998,65.72014801,0.359151999,0.698135636
2005/6/28,13:30,0,5,36,47.646,137,5.07,0.018778772,34.77828509,50.39313557,0.115927617,0.22534526
2005/6/28,13:35,0,5,36,47.652,137,5.13,0.04856284,89.93837909,82.96119473,0.299794597,0.582754076
2005/6/28,13:40,0,5,36,47.67,137,5.19,0.051435204,95.25799825,69.59190732,0.317526661,0.617222451
2005/6/28,13:45,0,5,36,47.706,137,5.25,0.060124855,111.3512319,53.32330927,0.371170773,0.721498263
2005/6/28,13:50,0,5,36,47.7,137,5.298,0.039015826,72.25730897,98.88171594,0.240857697,0.468189907
2005/6/28,13:55,0,5,36,47.718,137,5.388,0.074488328,137.952383,76.08138919,0.459841277,0.893859933
2005/6/28,14:00,0,5,36,47.742,137,5.424,0.03755711,69.55576728,50.38913729,0.231852558,0.450685317
2005/6/28,14:05,0,5,36,47.772,137,5.49,0.060890557,112.7693116,60.57063931,0.375897705,0.730686684
2005/6/28,14:10,0,5,36,47.772,137,5.562,0.057828544,107.0984626,90.04466325,0.356994875,0.693942522
2005/6/28,14:15,0,5,36,47.802,137,5.628,0.060890256,112.7687546,60.56910061,0.375895849,0.730683075
2005/6/28,14:20,0,5,36,47.79,137,5.688,0.049658001,91.96661709,104.0087019,0.30655539,0.595896007
2005/6/28,14:25,0,5,36,47.814,137,5.766,0.067075743,124.2242754,69.10609972,0.414080918,0.804908912
2005/6/28,14:30,0,5,36,47.82,137,5.874,0.086948684,161.0289627,86.09003027,0.536763209,1.043384208
2005/6/28,14:35,0,5,36,47.838,137,5.922,0.042536998,78.77852081,65.04181154,0.262595069,0.510443979
2005/6/28,14:40,0,5,36,47.862,137,5.982,0.053821252,99.67695868,63.595688,0.332256529,0.645855024
2005/6/28,14:45,0,5,36,47.862,137,6.066,0.067465311,124.9457557,90.03969318,0.416485852,0.809583731
2005/6/28,14:50,0,5,36,47.88,137,6.144,0.065174378,120.7029486,74.02805532,0.402343162,0.782092539
2005/6/28,14:55,0,5,36,47.904,137,6.192,0.045394861,84.07128187,58.16789274,0.280237606,0.544738327
2005/6/28,15:00,0,5,36,47.922,137,6.276,0.069818449,129.3037677,75.11745107,0.431012559,0.837821389
2005/6/28,15:05,0,5,36,47.928,137,6.33,0.043781949,81.08416942,82.17056898,0.270280565,0.525383387
2005/6/28,15:10,0,5,36,47.934,137,6.432,0.082139787,152.1228852,85.85267668,0.507076284,0.985677442
2005/6/28,15:15,0,5,36,47.94,137,6.486,0.043781836,81.0839601,82.16899127,0.270279867,0.525382031
2005/6/28,15:25,0,10,36,47.97,137,6.606,0.100926575,186.9160173,72.76567672,0.311526696,0.605559451
2005/6/28,15:30,0,5,36,47.988,137,6.654,0.04253586,78.77641202,65.03378344,0.26258804,0.510430315
2005/6/28,15:35,0,5,36,48,137,6.708,0.044994653,83.3300973,74.58608284,0.277766991,0.539935836
2005/6/28,15:40,0,5,36,47.988,137,6.786,0.063780581,118.1216358,100.8625997,0.393738786,0.765366971
2005/6/28,15:45,0,5,36,48,137,6.822,0.031298177,57.96422435,67.51817277,0.193214081,0.375578128
2005/6/28,15:50,0,5,36,48,137,6.894,0.057825671,107.0931426,90.03136887,0.356977142,0.693908051


�B,Time,Time int.,,Lat.,,Long.,,Distance,,Direction,Speed,
Date(yyyy/mm/dd),(hh:mm),(hour),(min),(deg),(min),(deg),(min),(miles),(meter),(deg),(m/s),(knots)
2005/6/28,12:05,0,,36,47.628,137,4.236,,,,,
2005/6/28,12:10,0,5,36,47.604,137,4.272,0.037557667,69.55679895,129.7133769,0.231855997,0.450692002
2005/6/28,12:15,0,5,36,47.58,137,4.344,0.062601035,115.9371162,112.5687656,0.386457054,0.751212416
2005/6/28,12:20,0,5,36,47.574,137,4.404,0.048563596,89.93977897,97.14376727,0.299799263,0.582763147
2005/6/28,12:25,0,5,36,47.562,137,4.446,0.035800271,66.30210244,109.6131171,0.221007008,0.429603256
2005/6/28,12:30,0,5,36,47.55,137,4.536,0.073275732,135.7066554,99.46797947,0.452355518,0.879308782
2005/6/28,12:35,0,5,36,47.538,137,4.578,0.035800435,66.30240538,109.6117037,0.221008018,0.429605218
2005/6/28,12:40,0,5,36,47.526,137,4.65,0.059060234,109.3795538,101.7612433,0.364598513,0.708722811
2005/6/28,12:45,0,5,36,47.52,137,4.674,0.020187045,37.38640686,107.32055,0.124621356,0.242244537
2005/6/28,12:50,0,5,36,47.502,137,4.752,0.065179092,120.711679,106.0624033,0.402372263,0.782149108
2005/6/28,12:55,0,5,36,47.514,137,4.824,0.059060525,109.3800932,78.34460448,0.364600311,0.708726306
2005/6/28,13:00,0,5,36,47.514,137,4.872,0.038554524,71.40297839,90.05142646,0.238009928,0.462654288
2005/6/28,13:05,0,5,36,47.52,137,4.962,0.072537602,134.3396398,85.31231092,0.447798799,0.87045123
2005/6/28,13:15,0,10,36,47.52,137,5.082,0.09638618,178.5072054,90.04968974,0.297512009,0.57831708
2005/6/28,13:20,0,5,36,47.532,137,5.136,0.044998903,83.3379687,74.60327899,0.277793229,0.539986838
2005/6/28,13:25,0,5,36,47.532,137,5.196,0.048192963,89.25336726,90.04825257,0.297511224,0.578315555
2005/6/28,13:30,0,5,36,47.532,137,5.244,0.03855437,71.4026928,90.04771355,0.238008976,0.462652437
2005/6/28,13:35,0,5,36,47.532,137,5.298,0.043373665,80.32802834,90.04720447,0.267760094,0.520483985
2005/6/28,13:45,0,10,36,47.544,137,5.388,0.073275993,135.7071381,80.63353381,0.226178564,0.439655955
2005/6/28,13:50,0,5,36,47.538,137,5.43,0.034263041,63.45515208,100.1178183,0.211517174,0.411156493
2005/6/28,13:55,0,5,36,47.544,137,5.49,0.048563954,89.94044247,82.95776543,0.299801475,0.582767446
2005/6/28,14:00,0,5,36,47.568,137,5.532,0.04138271,76.64077952,54.65125876,0.255469265,0.496592524
2005/6/28,14:05,0,5,36,47.55,137,5.604,0.060560689,112.158397,107.3116354,0.373861323,0.726728274
2005/6/28,14:10,0,5,36,47.55,137,5.664,0.048192769,89.25300879,90.04358134,0.297510029,0.578313232
2005/6/28,14:15,0,5,36,47.544,137,5.712,0.039017109,72.25968514,98.87728289,0.240865617,0.468205303
2005/6/28,14:20,0,5,36,47.574,137,5.712,0.029960533,55.48690795,0.042802893,0.18495636,0.359526401
2005/6/28,14:25,0,5,36,47.562,137,5.796,0.068525688,126.9095744,100.1144334,0.423031915,0.822308257
2005/6/28,14:30,0,5,36,47.574,137,5.838,0.035800258,66.3020779,70.48428783,0.221006926,0.429603097
2005/6/28,14:35,0,5,36,47.598,137,5.88,0.041382529,76.64044444,54.64760743,0.255468148,0.496590353
2005/6/28,14:40,0,5,36,47.592,137,5.952,0.058140362,107.6759498,95.95633332,0.358919833,0.69768434
2005/6/28,14:45,0,5,36,47.598,137,6,0.03901671,72.25894703,81.20583599,0.240863157,0.468200521
2005/6/28,14:50,0,5,36,47.61,137,6.048,0.04037343,74.771593,72.77213377,0.249238643,0.484481164
2005/6/28,14:55,0,5,36,47.634,137,6.12,0.062600659,115.9364208,67.5270099,0.386454736,0.75120791
2005/6/28,15:00,0,5,36,47.64,137,6.174,0.04378463,81.08913538,82.17261303,0.270297118,0.525415564
2005/6/28,15:05,0,5,36,47.658,137,6.222,0.042538354,78.78103203,65.0396808,0.26260344,0.510460251
2005/6/28,15:10,0,5,36,47.646,137,6.288,0.054348629,100.6536614,102.7761561,0.335512205,0.652183551
2005/6/28,15:15,0,5,36,47.646,137,6.342,0.043372584,80.32602544,90.03678498,0.267753418,0.520471007
2005/6/28,15:20,0,5,36,47.658,137,6.402,0.049659451,91.96930261,76.07128413,0.306564342,0.595913408
2005/6/28,15:25,0,5,36,47.664,137,6.45,0.039016162,72.25793188,81.20121901,0.240859773,0.468193943
2005/6/28,15:30,0,5,36,47.67,137,6.492,0.034262127,63.45345887,79.96296406,0.21151153,0.411145522
2005/6/28,15:35,0,5,36,47.67,137,6.516,0.019276603,35.70026882,90.03489864,0.119000896,0.231319236
2005/6/28,15:40,0,5,36,47.688,137,6.576,0.051435012,95.25764292,69.57799782,0.317525476,0.617220149
2005/6/28,15:45,0,5,36,47.682,137,6.642,0.053348073,98.80063096,96.48297779,0.329335437,0.640176874
